Regional Weather Roundup
Issued by NWS

Home | Current Version | Previous Version | Text Only | Print | Product List | Glossary Off
Versions: 1 2 3 4 5 6 7 8 9 10 11 12 13 14 15 16 17 18 19 20 21 22 23 24 25 26 27

000
ASUS45 KSLC 302210
RWRUT

UTAH REGIONAL WEATHER ROUNDUP
NATIONAL WEATHER SERVICE SALT LAKE CITY UT
400 PM MDT SAT APR 30 2016

UTZ001>011-023>025-302300-

NORTHERN UTAH

CITY           SKY/WX    TMP DP  RH WIND       PRES   REMARKS
BRIGHAM CITY   PTSUNNY   59  26  28 N5G16     29.96F
HILL AFB       PTSUNNY   58  30  35 NE10      29.94F
LOGAN          LGT RAIN  56  35  45 NE8       29.98S
OGDEN          PTSUNNY   60  30  32 NE18      29.94S
PROVO AIRPORT  PTSUNNY   55  34  44 SW10      29.91R
SALT LAKE CITY PTSUNNY   61  27  27 NE13      29.90F
VERNAL         CLOUDY    48  29  47 NE20G26   30.00S
WENDOVER       PTSUNNY   52  39  62 N16       30.00R
HEBER CITY     DRIZZLE   45  36  70 SE12      29.94S

$$

UTZ012>022-026-027-302300-

SOUTHERN/CENTRAL UTAH

CITY           SKY/WX    TMP DP  RH WIND       PRES   REMARKS
BLANDING       CLOUDY    50  39  67 W8        29.93S
BRYCE CANYON   LGT RAIN  40  35  83 E7        29.91S
CEDAR CITY     CLOUDY    49  42  77 W5        29.84F
DELTA          CLOUDY    57  32  38 N14       29.87S
HANKSVILLE     CLOUDY    59  32  36 CALM      29.87F
MILFORD        PTSUNNY   59  35  40 N20G30    29.83F
MOAB/CYNLANDS  CLOUDY    59  29  31 E17G25    29.84F
PRICE          PTSUNNY   54  26  34 NE25      29.93S
ST GEORGE      CLOUDY    63  43  48 SW5       29.79F
KANAB          PTSUNNY   55  43  62 E10G18    29.88F

$$

REGIONAL REPORTS     COLORADO/ARIZONA

CITY           SKY/WX    TMP DP  RH WIND       PRES   REMARKS
CRAIG, CO      CLOUDY    44  30  57 CALM      29.96F
GRAND JUNCTION CLOUDY    53  31  42 NE7       29.88F
RIFLE          CLOUDY    52  30  43 N10       29.90S
MONTROSE       CLOUDY    53  28  38 W9        29.88F
CORTEZ         PTSUNNY   58  34  40 S17       29.84S
PAGE, AZ       CLOUDY    54  43  66 NE9       29.86S
GRAND CANYON   TSTM      37  35  92 SW8       29.88R FOG     WCI  31
KINGMAN        PTSUNNY   53  45  74 N17       29.77F
FLAGSTAFF      MIX PCPN  37  37 100 SW5       29.85R WCI  33

$$

REGIONAL REPORTS    NEVADA/IDAHO/WYOMING

CITY           SKY/WX    TMP DP  RH WIND       PRES   REMARKS
LAS VEGAS, NV  CLOUDY    65  45  48 N14G21    29.73F
ELY            CLOUDY    49  32  52 N18       29.95F
ELKO           CLOUDY    57  34  41 N13       30.00F
POCATELLO, ID  PTSUNNY   58  36  43 NE9       30.02F
BURLEY         CLOUDY    54  39  57 CALM      30.03F
EVANSTON, WY   LGT RAIN  39  31  72 E21G29    30.05S WCI  29
ROCK SPRINGS   CLOUDY    38  31  76 NE21G30   30.08R WCI  28
KEMMERER       LGT RAIN  36  34  93 E16       30.08R WCI  26

$$




USA.gov is the U.S. government's official web portal to all federal, state and local government web resources and services.